N66TQ KISM-KFIN

Flight info

Callsign N66TQ
Flight time N/A
Altitude 9000
Route //
Aircraft BE33/L-BDFGLORY/S

Departure

Time 2026-05-01 14:44
Airport Kissimmee Gateway Airport (KISM)

Arrival

Time N/A
Airport Flagler Executive Airport (KFIN)
Time Latitude Longitude Altitude Speed Heading
2026-05-01 14:44 28.39813 -81.44123 3002 ft 156 kts
2026-05-01 14:44 28.41882 -81.43640 3191 ft 146 kts
2026-05-01 14:44 28.42868 -81.43416 3309 ft 143 kts
2026-05-01 14:45 28.43835 -81.43201 3402 ft 142 kts
2026-05-01 14:45 28.45865 -81.42765 3468 ft 155 kts
2026-05-01 14:45 28.46938 -81.42539 3494 ft 159 kts
2026-05-01 14:46 28.48054 -81.42306 3509 ft 166 kts
2026-05-01 14:46 28.50351 -81.41807 3501 ft 162 kts
2026-05-01 14:46 28.51412 -81.41572 3510 ft 153 kts
2026-05-01 14:47 28.52424 -81.41345 3487 ft 144 kts
2026-05-01 14:47 28.53391 -81.41126 3492 ft 139 kts
2026-05-01 14:47 28.54331 -81.40915 3484 ft 135 kts
2026-05-01 14:48 28.56133 -81.40513 3478 ft 129 kts
2026-05-01 14:48 28.57005 -81.40321 3495 ft 128 kts
2026-05-01 14:48 28.58180 -81.40060 3507 ft 129 kts
2026-05-01 14:49 28.59917 -81.39849 3495 ft 127 kts 357°
2026-05-01 14:49 28.61604 -81.40062 3503 ft 127 kts 348°
2026-05-01 14:50 28.62690 -81.40301 3481 ft 125 kts 346°
2026-05-01 14:50 28.64784 -81.40776 3479 ft 124 kts 346°
2026-05-01 14:51 28.65587 -81.40892 3487 ft 126 kts 358°
2026-05-01 14:51 28.67056 -81.40632 3482 ft 127 kts 12°
2026-05-01 14:52 28.68526 -81.40227 3660 ft 112 kts 11°
2026-05-01 14:52 28.69257 -81.40107 3607 ft 118 kts
2026-05-01 14:52 28.71010 -81.39973 3280 ft 136 kts
2026-05-01 14:53 28.71872 -81.39927 3301 ft 129 kts
2026-05-01 14:53 28.72734 -81.39860 3304 ft 124 kts
2026-05-01 14:53 28.73516 -81.39696 3284 ft 123 kts 12°
2026-05-01 14:53 28.74302 -81.39489 3208 ft 126 kts 12°
2026-05-01 14:54 28.74512 -81.39432 3196 ft 127 kts 12°
2026-05-01 14:54 28.75164 -81.39253 3149 ft 130 kts 12°
2026-05-01 14:54 28.75990 -81.39031 3092 ft 132 kts 12°
2026-05-01 14:54 28.76829 -81.38803 3050 ft 135 kts 13°
2026-05-01 14:55 28.77684 -81.38576 2984 ft 135 kts 12°
2026-05-01 14:55 28.78542 -81.38358 2941 ft 137 kts 11°
2026-05-01 14:55 28.79423 -81.38126 2909 ft 141 kts 12°
2026-05-01 14:55 28.80326 -81.37896 2848 ft 144 kts 12°
2026-05-01 14:56 28.81242 -81.37657 2769 ft 147 kts 12°
2026-05-01 14:56 28.82180 -81.37410 2662 ft 153 kts 12°
2026-05-01 14:56 28.83160 -81.37155 2542 ft 156 kts 12°
2026-05-01 14:56 28.84108 -81.36911 2601 ft 144 kts 12°
2026-05-01 14:57 28.84993 -81.36686 2663 ft 136 kts 12°
2026-05-01 14:57 28.86668 -81.36262 2828 ft 128 kts 11°
2026-05-01 14:57 28.87463 -81.36058 2897 ft 125 kts 11°
2026-05-01 14:58 28.88240 -81.35861 2992 ft 123 kts 11°
2026-05-01 14:58 28.89093 -81.35652 3087 ft 126 kts 11°
2026-05-01 14:58 28.89896 -81.35451 3147 ft 127 kts 11°
2026-05-01 14:58 28.90744 -81.35235 3209 ft 126 kts 11°
2026-05-01 14:59 28.91537 -81.35032 3278 ft 126 kts 11°